TimeEDT,TemperatureF,Dew PointF,Humidity,Sea Level PressureIn,VisibilityMPH,Wind Direction,Wind SpeedMPH,Gust SpeedMPH,PrecipitationIn,Events,Conditions,WindDirDegrees,DateUTC
12:15 AM,69.8,69.8,100,30.04,4.0,Calm,Calm,-,N/A,,Mostly Cloudy,0,2013-07-11 04:15:00
12:35 AM,70.7,70.7,100,30.03,7.0,Calm,Calm,-,N/A,,Overcast,0,2013-07-11 04:35:00
12:55 AM,70.7,70.7,100,30.03,3.0,Calm,Calm,-,N/A,,Overcast,0,2013-07-11 04:55:00
1:15 AM,70.3,70.3,100,30.04,2.5,West,4.6,-,N/A,,Overcast,270,2013-07-11 05:15:00
1:35 AM,69.8,69.8,100,30.03,10.0,West,5.8,-,N/A,,Mostly Cloudy,260,2013-07-11 05:35:00
1:55 AM,69.3,69.3,100,30.03,10.0,Calm,Calm,-,N/A,,Scattered Clouds,0,2013-07-11 05:55:00
2:15 AM,69.1,69.1,100,30.03,10.0,Calm,Calm,-,N/A,,Mostly Cloudy,0,2013-07-11 06:15:00
2:35 AM,68.5,68.5,100,30.03,10.0,Calm,Calm,-,N/A,,Scattered Clouds,0,2013-07-11 06:35:00
2:55 AM,68.4,68.4,100,30.03,10.0,Calm,Calm,-,N/A,,Mostly Cloudy,0,2013-07-11 06:55:00
3:15 AM,68.2,68.2,100,30.03,10.0,Calm,Calm,-,N/A,,Scattered Clouds,0,2013-07-11 07:15:00
3:35 AM,67.6,67.6,100,30.03,10.0,Calm,Calm,-,0.01,,Clear,0,2013-07-11 07:35:00
3:55 AM,68.0,68.0,100,30.03,10.0,Calm,Calm,-,0.01,,Scattered Clouds,0,2013-07-11 07:55:00
4:15 AM,68.2,68.0,99,30.02,10.0,Calm,Calm,-,N/A,,Overcast,0,2013-07-11 08:15:00
4:35 AM,67.5,67.5,100,30.02,7.0,Calm,Calm,-,N/A,,Overcast,0,2013-07-11 08:35:00
4:55 AM,67.3,67.3,100,30.02,7.0,Calm,Calm,-,N/A,,Overcast,0,2013-07-11 08:55:00
5:15 AM,67.1,67.1,100,30.01,5.0,Calm,Calm,-,N/A,,Overcast,0,2013-07-11 09:15:00
5:35 AM,67.3,67.3,100,30.02,5.0,Calm,Calm,-,N/A,,Overcast,0,2013-07-11 09:35:00
5:55 AM,67.1,67.1,100,30.02,7.0,Calm,Calm,-,N/A,,Overcast,0,2013-07-11 09:55:00
6:15 AM,67.3,67.3,100,30.03,7.0,Calm,Calm,-,N/A,,Overcast,0,2013-07-11 10:15:00
6:35 AM,67.3,67.3,100,30.04,5.0,Calm,Calm,-,N/A,,Overcast,0,2013-07-11 10:35:00
6:55 AM,67.5,67.5,100,30.04,5.0,Calm,Calm,-,N/A,,Overcast,0,2013-07-11 10:55:00
7:15 AM,67.6,67.6,100,30.04,7.0,Calm,Calm,-,N/A,,Overcast,0,2013-07-11 11:15:00
7:35 AM,68.2,68.2,100,30.05,10.0,Calm,Calm,-,N/A,,Overcast,0,2013-07-11 11:35:00
7:55 AM,68.5,68.4,99,30.05,10.0,Calm,Calm,-,N/A,,Overcast,0,2013-07-11 11:55:00
8:15 AM,69.1,68.9,99,30.05,10.0,NW,3.5,-,N/A,,Overcast,320,2013-07-11 12:15:00
8:35 AM,69.1,68.0,96,30.04,10.0,Calm,Calm,-,N/A,,Scattered Clouds,0,2013-07-11 12:35:00
8:55 AM,69.8,68.0,94,30.05,10.0,Calm,Calm,-,N/A,,Mostly Cloudy,0,2013-07-11 12:55:00
9:15 AM,70.2,68.2,93,30.05,10.0,Calm,Calm,-,N/A,,Overcast,0,2013-07-11 13:15:00
9:35 AM,70.0,68.0,93,30.05,10.0,Calm,Calm,-,N/A,,Overcast,0,2013-07-11 13:35:00
9:55 AM,70.3,68.4,93,30.05,10.0,Calm,Calm,-,N/A,,Overcast,0,2013-07-11 13:55:00
10:15 AM,70.9,68.7,93,30.05,10.0,WSW,3.5,-,N/A,,Overcast,240,2013-07-11 14:15:00
10:35 AM,71.1,68.9,93,30.05,10.0,Calm,Calm,-,N/A,,Overcast,0,2013-07-11 14:35:00
10:55 AM,71.2,68.9,92,30.05,10.0,Calm,Calm,-,N/A,,Overcast,0,2013-07-11 14:55:00
11:15 AM,71.1,69.1,93,30.05,10.0,Calm,Calm,-,N/A,,Overcast,0,2013-07-11 15:15:00
11:35 AM,71.4,68.9,92,30.05,10.0,Calm,Calm,-,N/A,Rain,Light Rain,0,2013-07-11 15:35:00
11:55 AM,71.6,68.9,91,30.05,10.0,Calm,Calm,-,N/A,,Overcast,0,2013-07-11 15:55:00
12:15 PM,72.1,69.3,91,30.05,10.0,Calm,Calm,-,N/A,,Overcast,0,2013-07-11 16:15:00
12:35 PM,73.2,69.1,87,30.05,10.0,Calm,Calm,-,N/A,,Overcast,0,2013-07-11 16:35:00
12:55 PM,73.6,68.5,84,30.04,10.0,Calm,Calm,-,N/A,,Overcast,0,2013-07-11 16:55:00
1:15 PM,74.5,68.2,81,30.03,10.0,Calm,Calm,-,N/A,,Mostly Cloudy,0,2013-07-11 17:15:00
1:35 PM,75.2,68.4,79,30.03,10.0,Calm,Calm,-,N/A,,Mostly Cloudy,0,2013-07-11 17:35:00
1:55 PM,76.3,68.2,76,30.02,10.0,Calm,Calm,-,N/A,,Mostly Cloudy,0,2013-07-11 17:55:00
2:15 PM,76.8,68.7,76,30.01,10.0,Calm,Calm,-,N/A,,Scattered Clouds,0,2013-07-11 18:15:00
2:35 PM,77.5,68.7,74,30.01,10.0,Calm,Calm,-,N/A,,Scattered Clouds,0,2013-07-11 18:35:00
2:55 PM,78.3,68.9,73,30.00,10.0,Calm,Calm,-,N/A,,Scattered Clouds,0,2013-07-11 18:55:00
3:15 PM,78.1,68.2,71,30.00,10.0,Calm,Calm,-,N/A,,Clear,0,2013-07-11 19:15:00
3:35 PM,78.8,69.1,72,30.00,10.0,Calm,Calm,-,N/A,,Scattered Clouds,0,2013-07-11 19:35:00
3:55 PM,78.8,68.9,72,29.99,10.0,Calm,Calm,-,N/A,,Clear,0,2013-07-11 19:55:00
4:15 PM,79.5,69.3,71,29.97,10.0,Calm,Calm,-,N/A,,Clear,0,2013-07-11 20:15:00
4:35 PM,79.7,68.5,69,29.97,10.0,Calm,Calm,-,N/A,,Clear,0,2013-07-11 20:35:00
4:55 PM,80.4,69.1,68,29.96,10.0,Calm,Calm,-,N/A,,Scattered Clouds,0,2013-07-11 20:55:00
5:15 PM,80.6,69.4,69,29.95,10.0,Calm,Calm,-,N/A,,Clear,0,2013-07-11 21:15:00
5:35 PM,80.2,69.1,69,29.95,10.0,West,3.5,-,N/A,,Clear,260,2013-07-11 21:35:00
5:55 PM,80.6,70.3,71,29.96,10.0,SW,3.5,-,N/A,,Clear,230,2013-07-11 21:55:00
6:15 PM,80.1,70.2,72,29.96,10.0,Calm,Calm,-,N/A,,Scattered Clouds,0,2013-07-11 22:15:00
6:35 PM,79.9,69.8,71,29.95,10.0,Calm,Calm,-,N/A,,Scattered Clouds,0,2013-07-11 22:35:00
6:55 PM,79.7,70.2,73,29.95,10.0,Calm,Calm,-,N/A,,Scattered Clouds,0,2013-07-11 22:55:00
7:15 PM,79.5,72.1,78,29.96,10.0,Calm,Calm,-,N/A,,Scattered Clouds,0,2013-07-11 23:15:00
7:35 PM,79.7,70.5,73,29.96,10.0,Calm,Calm,-,N/A,,Clear,0,2013-07-11 23:35:00
7:55 PM,79.7,71.1,75,29.95,10.0,Calm,Calm,-,N/A,,Clear,0,2013-07-11 23:55:00
8:15 PM,79.0,72.1,79,29.96,10.0,Calm,Calm,-,N/A,,Clear,0,2013-07-12 00:15:00
8:35 PM,77.2,73.4,88,29.97,10.0,Calm,Calm,-,N/A,,Scattered Clouds,0,2013-07-12 00:35:00
8:55 PM,76.1,73.2,91,29.96,10.0,Calm,Calm,-,N/A,,Scattered Clouds,0,2013-07-12 00:55:00
9:15 PM,75.0,73.2,94,29.96,10.0,Calm,Calm,-,N/A,,Clear,0,2013-07-12 01:15:00
9:35 PM,74.5,73.4,96,29.97,10.0,Calm,Calm,-,N/A,,Clear,0,2013-07-12 01:35:00
9:55 PM,72.9,72.1,98,29.98,7.0,Calm,Calm,-,N/A,,Clear,0,2013-07-12 01:55:00
10:15 PM,72.7,72.5,99,29.99,7.0,East,3.5,-,N/A,,Scattered Clouds,90,2013-07-12 02:15:00
10:35 PM,73.4,72.7,98,29.99,10.0,East,8.1,-,N/A,,Overcast,100,2013-07-12 02:35:00
10:55 PM,72.9,70.0,91,30.00,10.0,ESE,3.5,-,N/A,,Overcast,110,2013-07-12 02:55:00
11:15 PM,72.1,69.1,90,29.99,10.0,ESE,4.6,-,N/A,,Light Drizzle,120,2013-07-12 03:15:00
11:35 PM,71.6,68.5,90,29.99,10.0,Calm,Calm,-,N/A,,Overcast,0,2013-07-12 03:35:00
11:55 PM,71.6,69.4,93,29.99,10.0,Calm,Calm,-,N/A,,Overcast,0,2013-07-12 03:55:00